This is the latest recevied weather packets stored in our database for station/object RUSSARO. If no packets are shown the sender has not sent any weather packets the latest 10 day(s).
| Time | Temp. | Humidity | Pressure | Rain* | Wind** | Luminosity | Snow |
|---|---|---|---|---|---|---|---|
| 1777752428 | 6.67° C | 83% | 1008 hPa | 0 mm | - | - | - |
| 1777751227 | 6.67° C | 83% | 1008.3 hPa | 0 mm | - | - | - |
| 1777750028 | 6.67° C | 83% | 1008.5 hPa | 0 mm | - | - | - |
| 1777748827 | 6.67° C | 84% | 1008.6 hPa | 0 mm | - | - | - |
| 1777747627 | 6.67° C | 85% | 1008.8 hPa | 0 mm | - | - | - |
| 1777746427 | 6.67° C | 84% | 1009 hPa | 0 mm | - | - | - |
| 1777745227 | 6.67° C | 83% | 1009.1 hPa | 0 mm | - | - | - |
| 1777744027 | 7.22° C | 79% | 1009.2 hPa | 0 mm | - | - | - |
| 1777742827 | 7.22° C | 78% | 1009.4 hPa | 0 mm | - | - | - |
| 1777741627 | 7.78° C | 77% | 1009.6 hPa | 0 mm | - | - | - |
| 1777740427 | 7.78° C | 76% | 1009.8 hPa | 0 mm | - | - | - |
| 1777739226 | 7.78° C | 76% | 1010.1 hPa | 0 mm | - | - | - |
| 1777738027 | 7.78° C | 77% | 1010.3 hPa | 0 mm | - | - | - |
| 1777736826 | 7.78° C | 77% | 1010.6 hPa | 0 mm | - | - | - |
| 1777735626 | 7.78° C | 77% | 1010.9 hPa | 0 mm | - | - | - |
| 1777734427 | 7.78° C | 77% | 1011.1 hPa | 0 mm | - | - | - |
| 1777733226 | 7.78° C | 77% | 1011.2 hPa | 0 mm | - | - | - |
| 1777732026 | 8.33° C | 76% | 1011.4 hPa | 0 mm | - | - | - |
| 1777729626 | 8.89° C | 73% | 1011.7 hPa | 0 mm | - | - | - |
| 1777728427 | 8.33° C | 74% | 1011.8 hPa | 0 mm | - | - | - |
| 1777727226 | 9.44° C | 70% | 1011.7 hPa | 0 mm | - | - | - |
| 1777726026 | 9.44° C | 71% | 1011.9 hPa | 0 mm | - | - | - |
| 1777724826 | 10° C | 69% | 1012 hPa | 0 mm | - | - | - |
| 1777723626 | 10° C | 68% | 1012.2 hPa | 0 mm | - | - | - |
| 1777722426 | 10° C | 67% | 1012.3 hPa | 0 mm | - | - | - |
* Rain latest hour (hover to see other rain measurements)
** Current wind speed in m/s (hover to see current wind gust speed)